Weather in Pinar del Rio

Cuba     22°25′32″N   83°41′20″W
temp.,
°C
wind,
m/s
gust,
m/s
humid.,
%
clouds,
%
prec.,
mm/h
press.,
hPa
HPBL,
m
9 may, sun
sun923:00+21ne228324 0.6 101829
02:00+21e22835 0.6 101726
05:00+20ene22815 0.0 101630
08:00+22e27810 0.0 1018239
11:00+30ese56520 0.0 10181326
14:00+34se653826 0.0 10162512
17:00+32se75420 0.1 10152031
20:00+27se36610 0.3 1016236
10 may, mon
mon1023:00+23e22810 0.0 101718
02:00+22e11860 0.0 101616
05:00+22e11871 0.0 101511
08:00+24e267718 0.0 1017238
11:00+31ese56490 0.0 10171608
14:00+34se65350 0.0 10152501
17:00+33sse643947 0.1 10142496
20:00+27s23680 0.6 1016107
11 may, tue
tue1123:00+23s11850 0.0 101711
02:00+22e11910 0.0 101611
05:00+22ne11940 0.0 101517
08:00+24e13850 0.0 1017141
11:00+31se55470 0.0 10171503
14:00+35se55300 0.0 10152506
17:00+35sse443260 0.1 10142787
20:00+28sw34650 0.3 1015191
12 may, wed
wed1223:00+24s11830 0.0 101714
02:00+23se11890 0.0 101611
05:00+22e11915 0.0 101511
08:00+24ene1182100 0.0 101681
11:00+31se444892 0.0 10171333
14:00+36se543363 0.0 10152849
17:00+29w2358100 0.6 1014797
20:00+26w117956 1.9 101614
13 may, thu
thu1323:00+24sw1185100 1.2 101711
02:00+23s1187100 1.2 101711
05:00+23w008988 0.0 101611
08:00+24nnw008264 0.0 101742
11:00+32e12445 0.0 10171303
14:00+36sse323264 0.0 10152961
17:00+25nw348191 3.4 1015213
20:00+23nw1291100 15.5 101664